Columbia, SC

7:21 PM EDT on May 23, 2018 (GMT -0400)
Columbia Metro

Weather History for KCAE - November, 2013

Change the Weather History Date:

Tuesday, November 5, 2013

  Actual Average Record
Temperature  
Mean Temperature 54 °F 58 °F  
Max Temperature 67 °F 71 °F 86 °F (1961)
Min Temperature 41 °F 45 °F 28 °F (1976)
Degree Days  
Heating Degree Days 11 8  
Month to date heating degree days 35 37  
Since 1 July heating degree days 106 157  
Cooling Degree Days 0 1  
Month to date cooling degree days 7 5  
Year to date cooling degree days 2165 2157  
Growing Degree Days 4 (Base 50)    
Moisture  
Dew Point 43 °F    
Average Humidity 71    
Maximum Humidity 89    
Minimum Humidity 52    
Precipitation  
Precipitation T in 0.09 in 1.53 in (1963)
Month to date precipitation 1.15 0.44  
Year to date precipitation 48.68 39.07  
Sea Level Pressure  
Sea Level Pressure 30.44 in    
Wind  
Wind Speed 7 mph (NNE)    
Max Wind Speed 9 mph    
Max Gust Speed 12 mph    
Visibility 10 miles    
Events      
T = Trace of Precipitation, MM = Missing Value Source: NWS Daily Summary

Daily Weather History Graph

Daily Weather History Graph

Search for Another Location

Airport or City:

Astronomy

Nov. 05, 2013 Rise Set
Actual Time 6:47 AM EST 5:27 PM EST
Civil Twilight 6:21 AM EST 5:54 PM EST
Nautical Twilight 5:51 AM EST 6:23 PM EST
Astronomical Twilight 5:22 AM EST 6:53 PM EST
Moon 8:57 AM EST (11/5) 7:31 PM EST (11/5)
Length of Visible Light 11h 32m
Length of Day
10h 40m
Waxing Crescent, 6% of the Moon is Illuminated
Nov 5
Waxing Crescent
Nov 10
First Quarter
Nov 17
Full
Nov 25
Last Quarter
Dec 2
New

Hourly Weather History & Observations

Time (EST) Temp. Windchill Dew Point Humidity Pressure Visibility Wind Dir Wind Speed Gust Speed Precip Events Conditions
12:56 AM 46.9 °F - 34.0 °F 61% 30.48 in 10.0 mi NE 6.9 mph - N/A   Clear
1:56 AM 46.0 °F 41.9 °F 33.1 °F 61% 30.46 in 10.0 mi NNE 8.1 mph - N/A   Clear
2:56 AM 44.1 °F 40.8 °F 34.0 °F 68% 30.46 in 10.0 mi NNE 5.8 mph - N/A   Clear
3:56 AM 43.0 °F 37.7 °F 34.0 °F 71% 30.46 in 10.0 mi North 9.2 mph - N/A   Clear
4:56 AM 43.0 °F 38.8 °F 34.0 °F 71% 30.47 in 10.0 mi North 6.9 mph - N/A   Mostly Cloudy
5:22 AM 42.8 °F 38.0 °F 33.8 °F 70% 30.47 in 10.0 mi North 8.1 mph - N/A   Partly Cloudy
5:56 AM 41.0 °F 39.0 °F 35.1 °F 79% 30.48 in 10.0 mi North 3.5 mph - N/A   Clear
6:56 AM 41.0 °F 39.0 °F 34.0 °F 76% 30.48 in 10.0 mi North 3.5 mph - N/A   Scattered Clouds
7:56 AM 43.0 °F 38.8 °F 35.1 °F 74% 30.50 in 10.0 mi North 6.9 mph - N/A   Scattered Clouds
8:56 AM 48.9 °F - 37.9 °F 66% 30.50 in 10.0 mi North 9.2 mph - N/A   Partly Cloudy
9:56 AM 54.0 °F - 42.1 °F 64% 30.49 in 10.0 mi NNE 8.1 mph - N/A   Scattered Clouds
10:56 AM 57.0 °F - 43.0 °F 59% 30.47 in 10.0 mi NE 9.2 mph - N/A   Partly Cloudy
11:56 AM 60.1 °F - 45.0 °F 57% 30.44 in 10.0 mi ENE 8.1 mph - N/A   Partly Cloudy
12:56 PM 63.0 °F - 46.9 °F 56% 30.40 in 10.0 mi ENE 8.1 mph - N/A   Partly Cloudy
1:56 PM 64.9 °F - 48.9 °F 56% 30.38 in 10.0 mi NE 9.2 mph - N/A   Partly Cloudy
2:56 PM 66.9 °F - 48.9 °F 52% 30.39 in 10.0 mi NNE 8.1 mph - N/A   Scattered Clouds
3:56 PM 66.0 °F - 48.9 °F 54% 30.39 in 10.0 mi NNE 8.1 mph - N/A   Scattered Clouds
4:56 PM 64.0 °F - 48.9 °F 58% 30.39 in 10.0 mi NNE 6.9 mph - N/A   Mostly Cloudy
5:56 PM 60.1 °F - 51.1 °F 72% 30.40 in 9.0 mi NNE 5.8 mph - N/A   Overcast
6:56 PM 57.0 °F - 54.0 °F 89% 30.40 in 9.0 mi North 6.9 mph - 0.00 in   Overcast
7:56 PM 57.0 °F - 54.0 °F 89% 30.41 in 10.0 mi NNE 6.9 mph - 0.00 in   Overcast
8:56 PM 55.9 °F - 51.1 °F 84% 30.40 in 10.0 mi NNE 4.6 mph - N/A   Scattered Clouds
9:56 PM 55.0 °F - 51.1 °F 86% 30.40 in 10.0 mi NE 3.5 mph - N/A   Scattered Clouds
10:56 PM 54.0 °F - 50.0 °F 86% 30.39 in 10.0 mi North 5.8 mph - N/A   Scattered Clouds
11:56 PM 53.6 °F - 48.2 °F 82% 30.38 in 10.0 mi NNE 5.8 mph - N/A   Mostly Cloudy